SCP
1 0 0 0 0 0 0 0 0 0 0 0 0 0 0 0 0 0 0 0 0 0 0 0 0 1 1 1 1 1 1 1 0 1 1 1 1 1 1 1 1 1 1 1 1 1 1 1 1
1 0 0 0 0 0 0 0 0 0 0 0 0 0 0 0 0 0 0 0 0 0 0 0 0 1 1 1 1 1 1 1 0 1 1 1 1 1 1 1 1 1 1 1 1 1 1 1 1
0 0 0 0 0 0 0 0 0 0 0 0 0 0 0 0 0 0 0 0 0 0 0 0 0 1 1 1 1 1 1 1 0 1 1 1 1 1 1 1 1 1 1 1 1 1 1 1 1
0 0 0 0 0 0 0 0 0 0 0 0 0 0 0 0 0 0 0 0 0 0 0 0 0 1 1 1 1 1 1 0 0 0 0 0 0 0 0 1 1 1 1 1 1 1 1 1 1
0 0 0 0 0 0 0 0 0 0 1 0 0 0 0 0 0 0 0 0 0 0 0 0 0 1 1 1 1 1 1 1 1 1 0 0 0 0 0 1 1 1 1 1 1 1 1 1 1
0 0 0 0 0 0 0 0 0 1 1 1 0 0 0 0 0 0 0 0 0 0 0 0 0 0 0 0 0 0 0 1 1 1 1 1 1 1 1 1 1 1 1 1 1 1 1 1 1
0 0 0 0 0 0 0 0 0 1 1 0 0 0 0 0 0 0 0 0 0 0 0 0 0 0 0 0 0 0 0 0 1 1 1 1 1 1 1 1 1 1 1 1 1 1 1 1 1
0 0 0 0 0 0 0 0 0 0 0 0 0 0 0 0 1 1 0 0 0 0 0 0 0 0 0 0 0 0 0 0 0 0 1 1 1 1 1 1 1 1 1 1 1 1 1 1 1
0 0 0 0 0 0 0 0 0 0 0 0 0 0 0 1 1 1 0 0 0 0 0 0 0 0 0 0 0 0 0 0 0 0 0 0 0 0 1 1 1 1 1 1 1 1 1 1 1
0 0 0 0 0 0 0 0 0 0 0 0 0 0 0 1 1 1 0 0 0 0 0 0 0 0 0 0 0 0 0 0 0 0 0 0 0 0 0 1 1 1 1 1 1 1 1 1 1
0 0 0 0 0 0 0 0 0 0 0 0 0 0 0 1 1 1 0 0 0 0 0 0 0 0 0 0 0 0 0 0 0 0 0 0 0 0 0 0 0 1 1 1 1 1 1 1 0
0 0 0 0 0 0 0 0 0 0 0 0 0 0 0 0 0 0 0 0 0 0 0 0 0 0 0 0 0 0 0 0 0 0 0 0 0 0 0 0 0 0 0 0 0 0 0 0 0
0 0 0 0 0 0 0 0 0 0 0 0 0 0 0 0 0 0 0 0 0 0 0 0 0 0 0 0 0 0 0 0 0 0 0 0 0 0 0 0 0 0 0 0 0 0 0 0 0
0 0 0 0 0 0 0 0 0 0 0 0 0 0 0 0 0 0 0 0 0 0 0 0 0 0 0 0 0 0 0 0 0 0 0 0 0 0 0 0 0 0 0 0 0 0 0 0 0
0 0 0 0 0 0 0 0 0 0 0 0 0 0 0 0 0 0 0 0 0 0 0 0 0 0 0 0 0 0 0 0 0 0 0 0 0 0 0 0 0 0 0 0 0 0 0 0 0
0 0 0 0 0 0 0 0 0 0 0 0 0 0 0 0 0 0 0 0 0 0 0 0 0 0 0 0 0 0 0 0 0 0 0 0 0 0 0 0 0 0 0 0 0 0 0 0 0
0 0 0 0 0 0 0 0 0 0 0 0 0 0 0 0 0 0 0 0 0 0 0 0 0 0 0 0 0 0 0 0 0 0 0 0 0 0 0 0 0 0 0 0 0 0 0 0 0
0 0 0 0 0 0 0 0 0 0 0 0 0 0 0 0 0 0 0 0 0 0 0 0 0 0 0 0 0 0 0 0 0 0 0 0 0 0 0 0 0 0 0 0 0 0 0 0 0
0 0 0 0 0 0 0 0 0 0 0 0 0 0 0 0 0 0 0 0 0 0 0 0 0 0 0 0 0 0 0 0 0 0 0 0 0 0 0 0 0 0 0 0 0 0 0 0 0
0 0 0 0 0 0 0 0 0 0 0 0 0 0 0 0 0 0 0 1 0 0 0 0 0 0 0 0 0 0 0 0 0 0 0 0 0 0 0 0 0 0 0 0 0 0 0 0 0
0 0 0 0 0 0 0 0 0 0 0 0 0 0 0 0 0 0 1 1 1 0 0 0 0 0 0 0 0 0 0 0 0 0 0 0 0 0 0 0 0 0 0 0 0 0 0 0 0
0 0 0 0 0 0 0 0 0 0 0 0 0 0 0 0 0 1 1 1 1 0 0 0 0 0 0 0 0 0 0 0 0 0 0 0 0 0 0 0 0 0 0 0 0 0 0 0 0
0 0 0 0 0 0 0 0 0 0 0 0 0 0 0 0 0 1 1 1 1 1 0 1 0 0 0 0 0 0 0 0 0 0 0 0 0 0 0 0 0 0 0 0 0 0 0 0 0
0 0 0 0 0 0 0 0 0 0 0 0 0 0 0 0 1 1 1 1 1 1 1 1 1 0 0 0 0 0 0 0 0 1 0 0 0 0 0 0 0 0 0 0 0 0 0 0 0
0 0 0 0 0 0 0 0 0 0 0 0 0 0 0 0 1 1 1 1 1 1 1 1 1 0 0 0 0 0 0 0 0 1 1 1 0 0 0 0 0 0 0 0 0 0 0 0 0
0 0 0 0 0 0 0 0 0 0 0 0 0 0 0 0 1 1 1 1 1 1 1 1 1 1 0 0 0 0 0 0 0 1 1 1 1 1 0 0 0 0 0 0 0 0 0 0 0
0 0 0 0 0 0 0 0 0 0 0 0 0 0 0 0 1 1 1 2 1 1 1 1 1 1 0 1 1 0 0 0 0 1 1 1 1 1 1 0 0 0 0 0 0 0 0 0 0
0 0 0 0 0 0 0 0 0 0 0 0 0 0 0 0 0 1 1 2 2 1 1 1 1 0 0 0 0 0 0 0 1 1 1 1 1 1 1 0 0 0 0 0 0 0 0 0 0
0 0 0 0 0 0 0 0 0 0 0 0 0 0 0 0 0 1 1 1 1 1 1 1 0 0 0 0 0 0 0 1 1 1 2 2 2 1 1 1 0 0 0 0 0 0 0 0 0
0 0 0 0 0 0 0 0 0 0 0 0 0 0 0 0 0 1 1 1 1 1 1 1 0 0 0 0 0 1 0 1 1 1 2 2 2 2 1 1 0 0 0 0 0 0 0 0 0
Wind_Speed
2 2 2 4 6 5 2 1 1 3 3 4 7 9 8 6 4 5 2 6 8 6 4 6 8 9 9 10 10 10 11 11 11 11 11 11 11 11 11 11 11 11 11 11 10 10 10 10 10
1 1 4 5 5 3 1 1 2 3 5 6 7 7 7 6 5 6 3 6 8 7 5 6 9 10 9 10 10 10 11 10 10 11 10 10 11 10 10 11 11 11 11 11 10 9 9 9 10
1 1 4 4 3 3 2 2 4 3 4 5 5 5 5 4 4 4 5 8 8 6 4 6 10 10 10 10 10 10 10 10 11 11 10 10 10 10 10 10 10 10 10 10 10 9 9 9 9
2 4 4 4 2 2 4 3 4 5 5 6 6 6 4 3 4 6 8 9 8 6 4 6 10 10 10 10 10 10 11 10 10 10 10 10 10 10 9 9 9 9 9 9 9 9 9 9 9
4 4 5 3 1 0 2 3 4 5 4 5 7 6 4 3 8 10 9 8 8 5 4 5 9 10 10 10 10 11 10 10 10 10 10 10 10 10 9 8 8 8 8 8 8 8 8 8 8
4 4 4 1 1 0 1 2 5 7 6 6 7 6 3 2 7 8 8 7 7 6 4 4 9 10 10 10 10 10 10 10 10 10 10 10 9 9 8 8 8 8 7 7 7 7 7 8 8
4 4 3 2 2 1 1 2 5 6 5 4 5 6 3 3 5 7 8 7 7 6 5 3 4 5 8 9 9 9 9 9 9 10 10 9 9 8 7 6 6 6 7 7 6 6 6 6 7
4 4 2 1 2 1 1 2 4 6 5 4 5 7 6 5 6 7 7 6 6 5 4 3 3 3 3 4 8 8 8 8 8 8 8 8 7 7 7 5 5 5 5 5 5 5 5 6 6
4 4 1 2 4 2 1 4 3 3 5 3 3 5 7 9 8 8 6 5 4 5 3 3 3 3 2 3 5 5 6 6 6 5 6 5 3 3 3 4 5 4 4 4 4 4 4 5 6
4 3 3 3 5 4 3 4 3 4 5 4 5 6 9 10 9 8 7 6 5 4 4 3 3 3 2 3 3 2 2 2 2 2 2 2 2 2 2 4 4 4 4 5 5 5 5 4 3
3 3 1 2 4 4 4 3 3 6 3 4 9 10 9 9 8 7 7 6 6 5 5 4 4 3 3 2 2 1 1 1 1 2 2 1 1 1 2 1 2 3 4 3 4 4 3 3 2
2 2 3 3 3 3 3 3 3 3 4 7 11 12 10 9 8 7 7 5 5 5 5 5 4 3 3 3 2 2 1 1 1 0 1 2 1 1 1 1 1 1 1 2 2 2 2 2 2
2 2 2 3 4 4 4 4 4 2 4 8 10 10 9 9 7 5 6 6 5 5 4 5 5 4 3 3 2 2 1 1 1 1 1 2 2 1 1 1 1 1 1 2 1 2 2 2 2
2 2 2 3 3 2 4 2 4 3 6 9 10 9 8 8 8 6 5 5 5 5 5 5 5 5 4 3 2 2 2 1 2 2 2 2 2 2 2 1 1 1 1 1 2 2 2 1 2
2 3 2 0 2 2 4 2 2 6 8 8 9 8 8 7 7 7 8 7 6 5 5 5 5 5 4 4 3 3 2 2 2 2 2 3 2 2 2 2 2 1 1 2 2 3 2 2 3
3 3 0 3 2 3 5 2 4 6 8 8 8 7 7 7 7 7 8 7 7 5 5 5 6 5 4 4 3 2 2 3 2 2 2 3 3 3 3 2 2 1 2 2 2 2 2 3 2
2 1 2 3 3 3 4 4 4 6 8 8 7 7 7 7 6 6 8 8 7 6 6 5 5 6 5 4 3 3 3 3 2 2 2 3 4 4 3 3 2 2 2 2 2 2 2 2 2
2 2 2 3 3 3 3 5 5 6 8 8 7 6 7 7 7 7 7 7 7 6 6 6 6 5 5 4 3 3 3 2 2 2 2 3 3 3 3 3 3 3 3 3 3 2 2 1 1
3 2 1 3 3 3 4 5 6 7 7 7 7 7 7 7 6 6 6 7 7 6 6 6 6 5 4 3 3 2 2 1 1 1 2 3 3 3 4 3 3 3 3 2 2 2 3 2 1
2 1 2 3 2 1 3 5 5 7 9 10 10 9 9 6 4 5 6 7 7 7 6 6 6 6 5 4 3 3 2 1 1 1 2 2 3 3 3 3 2 2 2 3 3 2 2 1 2
1 3 3 3 2 2 1 4 3 3 4 5 7 8 8 9 9 7 7 7 7 7 7 7 6 6 5 5 3 3 3 3 2 1 1 1 2 2 3 3 3 2 2 2 1 2 2 1 1
3 3 3 2 1 2 1 3 6 4 2 5 6 7 7 7 7 7 7 7 8 8 7 7 7 6 5 5 5 5 4 2 2 1 1 0 1 2 2 2 3 2 2 1 1 2 1 2 0
4 3 2 1 1 1 1 2 7 1 3 6 7 7 7 8 9 8 8 8 8 7 7 6 6 6 5 5 6 6 4 3 2 1 2 1 0 1 2 2 2 2 1 1 1 2 2 1 1
2 3 4 4 3 2 4 4 6 5 7 6 6 7 7 8 8 8 7 6 6 6 6 6 7 6 6 6 6 6 6 4 4 3 2 1 0 0 1 2 2 2 1 1 1 1 2 1 2
4 5 4 4 3 5 3 3 7 6 6 7 8 8 7 8 8 7 7 7 7 7 7 6 7 6 6 6 5 5 6 6 6 4 4 3 1 1 1 1 1 1 1 2 1 2 1 1 2
3 7 6 4 4 5 3 3 6 4 2 4 6 7 7 7 7 8 9 9 9 9 8 8 8 6 6 6 6 5 5 4 3 4 4 4 3 3 3 2 2 2 2 2 2 2 1 1 1
4 4 6 5 1 2 4 4 4 3 3 4 5 6 6 7 7 7 7 7 8 9 9 10 9 7 7 6 5 5 5 4 4 4 4 3 3 3 3 3 3 2 2 2 2 1 1 1 1
4 5 4 4 2 2 4 4 4 2 3 3 4 5 5 5 5 6 6 6 7 8 8 8 8 8 7 6 6 5 5 5 5 4 4 4 4 3 3 3 3 3 2 2 2 1 1 1 1
1 2 4 3 4 4 3 6 5 6 6 7 6 6 5 6 6 5 5 6 6 5 6 6 6 6 6 7 6 5 4 4 4 5 5 5 4 4 4 4 4 3 3 3 2 2 2 2 1
4 4 6 4 3 4 3 8 4 4 4 6 5 5 4 4 5 5 5 4 4 5 5 6 6 6 6 6 5 5 5 4 4 4 5 5 5 5 5 5 4 4 4 4 4 3 2 3 2
Wind_Direction
315 2 77 59 55 55 62 299 143 89 66 61 75 83 87 70 94 131 161 140 131 126 123 117 109 104 98 95 93 92 91 91 91 90 90 92 91 93 95 96 96 96 94 92 89 84 80 78 78
0 29 57 58 81 81 2 240 103 101 133 121 83 80 78 70 77 105 114 132 127 124 122 118 112 107 101 98 97 94 94 94 91 90 89 92 92 93 96 98 98 97 95 93 90 86 82 79 76
29 64 76 69 94 145 163 192 133 104 106 97 81 60 74 94 99 112 139 130 116 113 114 118 112 107 102 100 99 95 95 93 93 92 92 94 94 93 94 97 96 96 95 93 90 87 84 81 76
77 51 57 73 95 182 160 181 146 112 76 65 94 69 62 75 115 125 132 123 113 107 106 117 113 109 103 101 101 98 96 95 94 93 94 96 97 97 96 95 94 94 96 95 92 88 85 83 78
68 75 66 64 87 156 156 162 126 100 91 82 93 89 65 37 107 120 125 122 120 116 112 116 114 111 105 101 100 100 98 97 96 93 94 96 98 99 101 102 101 97 93 91 92 89 85 84 81
62 72 85 96 119 87 102 138 102 95 102 102 96 101 96 112 117 128 129 127 126 124 116 114 116 114 109 106 104 101 100 97 95 93 93 95 96 96 100 101 101 102 99 94 89 84 83 82 80
105 99 125 148 133 85 147 127 112 115 115 122 118 105 120 142 138 132 131 126 121 120 113 101 110 111 113 112 109 104 103 100 98 97 92 91 91 91 96 106 104 106 103 95 84 77 87 87 83
130 102 89 131 141 165 213 112 114 114 115 116 111 131 160 180 146 124 123 120 120 118 120 115 107 104 107 111 113 111 107 103 99 98 95 89 85 84 87 91 101 109 104 95 86 77 85 83 83
97 80 135 183 157 171 132 92 77 90 98 84 89 138 154 150 132 123 117 110 123 129 131 130 123 122 124 124 118 114 110 105 98 94 94 82 55 55 72 81 81 76 75 79 84 79 74 74 73
89 126 208 186 157 152 126 110 123 91 80 74 74 91 122 134 133 137 142 145 146 149 151 146 145 148 149 141 111 96 97 92 86 84 83 72 62 51 69 63 74 64 53 49 57 55 57 56 48
128 163 170 114 134 126 113 98 108 118 116 158 147 143 140 139 144 152 157 156 157 160 155 155 159 160 155 131 125 104 88 85 76 86 95 91 64 41 46 38 44 45 42 32 33 37 39 46 49
120 178 144 135 124 108 114 108 85 118 184 165 151 149 146 150 157 163 162 158 151 149 159 160 163 155 155 140 134 127 117 110 106 114 113 109 94 65 62 58 27 42 44 42 33 38 40 47 56
109 152 122 128 113 122 116 117 116 131 143 136 138 141 149 157 166 164 158 155 148 148 155 157 156 151 145 130 130 127 144 133 129 114 110 115 120 112 93 72 43 35 45 56 57 53 53 45 58
172 136 108 131 126 132 126 135 119 165 140 135 144 153 161 165 169 157 153 156 157 154 156 153 153 155 141 133 129 127 131 119 101 90 90 100 109 109 99 79 56 39 43 55 75 73 65 52 61
112 83 30 219 147 172 122 66 180 172 147 145 158 165 167 174 170 169 173 167 166 161 156 154 154 151 143 139 136 123 124 108 94 85 79 84 94 104 109 93 67 43 55 67 61 55 54 56 52
77 81 141 263 180 187 129 216 222 172 152 162 171 173 175 181 181 182 175 166 164 157 152 157 153 145 143 134 122 112 105 97 88 86 73 71 82 92 91 83 69 61 71 67 71 59 54 44 44
47 137 210 264 214 177 160 213 221 179 165 176 181 180 180 185 191 187 177 169 167 162 154 150 141 142 140 129 115 107 100 92 89 86 75 67 70 80 87 81 66 69 70 64 71 62 71 57 33
198 188 205 225 246 175 193 222 216 192 177 185 186 183 179 186 196 185 175 167 163 160 153 147 140 139 132 116 97 85 80 73 74 78 80 80 76 80 83 77 64 67 67 54 58 62 46 53 28
173 162 228 246 228 184 212 226 223 201 187 188 192 188 184 191 192 171 166 161 154 150 150 150 145 148 134 118 116 112 110 83 70 78 87 84 85 86 85 78 70 67 73 72 64 61 50 27 34
156 164 284 289 272 181 230 247 232 201 201 194 187 187 185 180 168 168 161 159 158 157 157 152 153 151 148 145 146 145 139 128 114 82 78 83 90 92 98 96 90 78 76 63 57 70 71 13 36
202 185 217 247 319 6 47 309 282 246 202 194 191 186 181 178 177 174 164 165 157 160 163 161 159 156 153 144 123 101 76 61 52 42 46 62 98 103 104 111 106 94 90 90 76 93 110 99 0
237 219 201 221 66 282 142 277 277 238 210 204 201 189 186 179 174 174 167 165 170 173 165 157 162 162 158 148 142 140 138 149 180 180 178 136 110 111 114 116 112 108 101 107 100 86 99 117 73
214 210 193 216 181 300 271 210 282 228 215 222 207 192 187 181 172 174 175 176 175 170 165 162 163 165 157 155 157 152 149 161 158 149 151 157 133 125 127 127 125 120 113 129 106 84 88 109 136
162 49 30 42 71 293 237 186 267 227 210 208 203 190 181 175 174 176 176 167 162 159 163 164 164 169 164 159 161 164 163 162 151 158 170 184 184 201 150 136 136 140 143 162 148 120 109 103 106
81 81 30 358 2 257 250 185 248 242 214 191 184 184 180 169 167 168 167 166 170 166 170 171 169 171 171 166 169 175 174 170 171 175 180 174 178 206 221 168 159 162 175 173 142 122 116 115 117
174 141 158 198 229 279 313 232 260 266 199 157 157 164 165 163 166 171 175 176 182 178 175 174 175 175 176 174 177 179 176 173 182 181 178 185 194 201 199 188 179 174 171 162 150 136 155 122 138
160 184 176 151 225 273 288 296 316 40 84 115 133 142 160 169 170 176 180 180 184 183 184 183 178 176 179 181 176 177 179 177 183 186 184 189 199 197 188 184 179 177 172 174 158 146 179 145 158
173 165 107 128 173 262 291 269 240 220 191 162 154 161 171 169 172 174 176 183 193 192 188 184 181 181 179 179 181 180 186 188 186 183 190 193 198 195 183 185 187 186 180 177 158 151 201 160 208
207 153 132 138 163 169 252 269 230 203 197 184 186 177 172 174 177 180 182 185 190 182 178 179 182 178 178 183 183 179 185 188 183 190 198 197 195 190 191 192 189 186 187 185 173 185 188 188 223
193 188 155 162 216 180 195 264 274 207 191 171 173 173 174 176 173 176 179 175 176 171 172 179 182 181 184 185 182 183 185 187 187 195 201 199 199 200 199 194 192 195 194 192 189 202 203 200 211